Weather in Otradnoe

Russia / Kaliningrad Oblast     54°56′33″N   20°06′01″E
temp.,
°C
wind,
m/s
gust,
m/s
humid.,
%
clouds,
%
prec.,
mm/h
press.,
hPa
HPBL,
m
22 september, wed
wed2223:00+12n666338 0.3 10221195
02:00+13n775941 0.3 10221566
05:00+12ne6766100 0.2 10221202
08:00+12nne6764100 0.4 10231181
11:00+13nne6764100 0.1 10231252
14:00+13n6766100 0.4 10231178
17:00+13nnw6669100 0.3 10221028
20:00+13wnw5566100 0.4 1021860
23 september, thu
thu2323:00+13w5671100 0.0 1019913
02:00+14sw7780100 0.1 1016774
05:00+14wsw8884100 0.3 1013628
08:00+14wsw91084100 0.3 1011731
11:00+14wsw121489100 0.3 1008951
14:00+15wsw121484100 1.1 1005982
17:00+15sw131785100 1.8 10001295
20:00+15wsw162288100 5.4 9961753
24 september, fri
fri2423:00+13w182472100 3.3 9942003
02:00+13wnw182074100 4.6 9941719
05:00+12nw172074100 0.4 9961699
08:00+13nw17206990 0.6 9981678
11:00+13nw14196887 0.1 10011443
14:00+14wnw141766100 0.1 10031475
17:00+14wnw131472100 0.1 10051339
20:00+14wnw131474100 0.1 10061389
25 september, sat
sat2523:00+15w121486100 0.9 10061038
02:00+15w131488100 2.8 1004947
05:00+15w131691100 0.8 1005994
08:00+15w131687100 1.3 10061200
11:00+15wnw13168330 0.4 10081280
14:00+15w12158310 0.6 10101182
17:00+15wnw1113820 0.1 10121101
20:00+15wnw911804 0.1 1014756
26 september, sun
sun2623:00+15wnw89825 0.0 1016529
02:00+15nw66825 0.0 1018404
05:00+15nw33785 0.0 1019293
08:00+15ne11755 0.0 1021204
11:00+15ese23755 0.0 1022316
14:00+15ene54755 0.0 1023224
17:00+15ene88727 0.0 1023263
20:00+15ese797374 0.0 1023275